MSR69 HECA-OERK

Flight info

Callsign MSR69
Flight time N/A
Altitude 41000
Route CVO L677 MENLI N697 SISIK W976 TAKSU L550 KARIK B411 DEESA Y415 NIMAR G662 KUNEK
Aircraft A359/H-SDE2E3GHIJ3J4J5LM1ORWXY/LB1D1

Departure

Time 2026-04-28 20:29
Airport Cairo International Airport (HECA)

Arrival

Time N/A
Airport King Khalid International Airport (OERK)
Time Latitude Longitude Altitude Speed Heading
2026-04-28 20:18 30.10776 31.39517 376 ft 0 kts 75°
2026-04-28 20:19 30.10774 31.39511 376 ft 2 kts 76°
2026-04-28 20:20 30.10770 31.39489 376 ft 3 kts 81°
2026-04-28 20:20 30.10768 31.39466 376 ft 3 kts 90°
2026-04-28 20:20 30.10769 31.39443 376 ft 3 kts 114°
2026-04-28 20:20 30.10778 31.39428 376 ft 2 kts 160°
2026-04-28 20:21 30.10786 31.39425 376 ft 1 kts 165°
2026-04-28 20:24 30.10757 31.39434 376 ft 8 kts 165°
2026-04-28 20:25 30.10692 31.39454 376 ft 11 kts 165°
2026-04-28 20:25 30.10619 31.39488 376 ft 8 kts 130°
2026-04-28 20:25 30.10607 31.39555 376 ft 10 kts 84°
2026-04-28 20:25 30.10623 31.39641 376 ft 12 kts 76°
2026-04-28 20:26 30.10589 31.39718 376 ft 12 kts 154°
2026-04-28 20:26 30.10504 31.39749 379 ft 12 kts 165°
2026-04-28 20:26 30.10425 31.39774 383 ft 11 kts 165°
2026-04-28 20:26 30.10354 31.39775 387 ft 9 kts 206°
2026-04-28 20:27 30.10311 31.39730 390 ft 7 kts 227°
2026-04-28 20:27 30.10266 31.39672 392 ft 13 kts 228°
2026-04-28 20:27 30.10205 31.39593 390 ft 11 kts 223°
2026-04-28 20:27 30.10119 31.39594 390 ft 13 kts 142°
2026-04-28 20:28 30.10049 31.39663 390 ft 10 kts 137°
2026-04-28 20:28 30.10001 31.39767 390 ft 33 kts 96°
2026-04-28 20:28 30.10109 31.40018 390 ft 36 kts 49°
2026-04-28 20:28 30.10365 31.40355 393 ft 90 kts 48°
2026-04-28 20:29 30.10922 31.41103 391 ft 153 kts 48°
2026-04-28 20:29 30.11685 31.42129 821 ft 176 kts 47°
2026-04-28 20:29 30.12517 31.43225 1527 ft 188 kts 46°
2026-04-28 20:29 30.13422 31.44389 2223 ft 201 kts 46°
2026-04-28 20:30 30.14384 31.45598 2962 ft 209 kts 44°
2026-04-28 20:30 30.15399 31.46851 3683 ft 218 kts 44°
2026-04-28 20:30 30.16394 31.48241 4240 ft 238 kts 59°
2026-04-28 20:30 30.16689 31.50223 4615 ft 269 kts 96°
2026-04-28 20:31 30.15884 31.52211 5272 ft 282 kts 132°
2026-04-28 20:31 30.14329 31.53565 6240 ft 281 kts 154°
2026-04-28 20:31 30.12530 31.54451 7219 ft 282 kts 162°
2026-04-28 20:31 30.10671 31.55190 8199 ft 284 kts 163°
2026-04-28 20:32 30.08790 31.55941 9168 ft 288 kts 162°
2026-04-28 20:32 30.06906 31.56774 10149 ft 292 kts 160°
2026-04-28 20:32 30.04990 31.57742 10726 ft 312 kts 157°
2026-04-28 20:32 30.02982 31.58948 11091 ft 337 kts 152°
2026-04-28 20:33 30.00955 31.60436 11709 ft 351 kts 147°
2026-04-28 20:33 29.98977 31.62146 12496 ft 359 kts 145°
2026-04-28 20:33 29.96878 31.63747 13294 ft 365 kts 153°
2026-04-28 20:33 29.94624 31.65142 14063 ft 371 kts 155°
2026-04-28 20:34 29.92389 31.66675 14826 ft 378 kts 147°
2026-04-28 20:34 29.90390 31.68671 15638 ft 383 kts 138°
2026-04-28 20:34 29.88559 31.70926 16419 ft 388 kts 133°
2026-04-28 20:34 29.86839 31.73356 17193 ft 394 kts 130°
2026-04-28 20:35 29.85183 31.75895 17947 ft 399 kts 128°
2026-04-28 20:35 29.83547 31.78498 18663 ft 404 kts 128°
2026-04-28 20:35 29.81923 31.81103 19314 ft 408 kts 128°
2026-04-28 20:35 29.80264 31.83773 20002 ft 413 kts 127°
2026-04-28 20:36 29.78800 31.86657 20660 ft 422 kts 117°
2026-04-28 20:36 29.77725 31.89827 21327 ft 429 kts 110°
2026-04-28 20:36 29.76845 31.93132 21980 ft 435 kts 107°
2026-04-28 20:36 29.76059 31.96521 22631 ft 441 kts 105°
2026-04-28 20:37 29.75316 31.99962 23285 ft 446 kts 105°
2026-04-28 20:37 29.74576 32.03457 23867 ft 452 kts 105°
2026-04-28 20:37 29.73823 32.06988 24418 ft 457 kts 105°
2026-04-28 20:37 29.73051 32.10557 24946 ft 462 kts 105°
2026-04-28 20:38 29.72249 32.14204 25500 ft 466 kts 105°
2026-04-28 20:38 29.71454 32.17785 26045 ft 470 kts 105°
2026-04-28 20:38 29.70625 32.21493 26602 ft 475 kts 105°
2026-04-28 20:38 29.69806 32.25141 27123 ft 479 kts 105°
2026-04-28 20:39 29.68968 32.28867 27656 ft 484 kts 105°
2026-04-28 20:39 29.68120 32.32633 28158 ft 488 kts 105°
2026-04-28 20:39 29.67266 32.36425 28654 ft 492 kts 105°
2026-04-28 20:39 29.66404 32.40251 29180 ft 496 kts 105°
2026-04-28 20:40 29.65534 32.44105 29653 ft 500 kts 105°
2026-04-28 20:40 29.64656 32.47990 30111 ft 505 kts 105°
2026-04-28 20:40 29.63768 32.51911 30473 ft 509 kts 105°
2026-04-28 20:40 29.62872 32.55864 30844 ft 513 kts 105°
2026-04-28 20:41 29.61966 32.59854 31195 ft 518 kts 106°
2026-04-28 20:41 29.61052 32.63873 31539 ft 521 kts 106°
2026-04-28 20:41 29.60319 32.67965 31910 ft 526 kts 98°
2026-04-28 20:41 29.60054 32.72176 32236 ft 530 kts 92°
2026-04-28 20:42 29.59984 32.76432 32553 ft 535 kts 90°
2026-04-28 20:42 29.60010 32.80710 32873 ft 539 kts 89°
2026-04-28 20:42 29.60078 32.85032 33199 ft 542 kts 88°
2026-04-28 20:42 29.60156 32.89379 33506 ft 546 kts 88°
2026-04-28 20:43 29.60227 32.93765 33765 ft 551 kts 89°
2026-04-28 20:43 29.60285 32.98184 34038 ft 555 kts 89°
2026-04-28 20:43 29.60333 33.02627 34298 ft 558 kts 89°
2026-04-28 20:43 29.60373 33.07103 34557 ft 561 kts 89°
2026-04-28 20:44 29.60408 33.11589 34902 ft 561 kts 89°
2026-04-28 20:44 29.60440 33.16070 35257 ft 561 kts 89°
2026-04-28 20:44 29.60471 33.20548 35614 ft 561 kts 89°
2026-04-28 20:44 29.60500 33.25028 35938 ft 561 kts 89°
2026-04-28 20:45 29.60529 33.29521 36250 ft 562 kts 89°
2026-04-28 20:45 29.60556 33.34017 36607 ft 563 kts 89°
2026-04-28 20:45 29.60582 33.38513 36897 ft 563 kts 89°
2026-04-28 20:45 29.60607 33.43010 37218 ft 563 kts 89°
2026-04-28 20:46 29.60630 33.47456 37507 ft 564 kts 89°
2026-04-28 20:46 29.60651 33.51961 37783 ft 564 kts 89°
2026-04-28 20:46 29.60671 33.56469 38064 ft 564 kts 89°
2026-04-28 20:46 29.60689 33.60976 38337 ft 565 kts 89°
2026-04-28 20:47 29.60706 33.65488 38620 ft 565 kts 89°
2026-04-28 20:47 29.60722 33.70002 38839 ft 565 kts 89°
2026-04-28 20:47 29.60736 33.74509 39095 ft 564 kts 89°
2026-04-28 20:47 29.60748 33.79014 39327 ft 563 kts 90°
2026-04-28 20:48 29.60760 33.83511 39539 ft 563 kts 90°
2026-04-28 20:48 29.60766 33.88002 39748 ft 563 kts 90°
2026-04-28 20:48 29.60760 33.92497 39958 ft 562 kts 90°
2026-04-28 20:48 29.60749 33.96988 40153 ft 562 kts 90°
2026-04-28 20:49 29.60737 34.01473 40365 ft 561 kts 91°
2026-04-28 20:49 29.60729 34.04439 40500 ft 561 kts 91°
2026-04-28 20:49 29.60711 34.10427 40753 ft 560 kts 91°
2026-04-28 20:49 29.60702 34.13395 40878 ft 560 kts 91°
2026-04-28 20:50 29.60689 34.17876 41009 ft 562 kts 91°
2026-04-28 20:50 29.60659 34.26915 41008 ft 569 kts 91°
2026-04-28 20:51 29.60670 34.36017 41004 ft 570 kts 90°
2026-04-28 20:51 29.60692 34.45121 40999 ft 569 kts 91°
2026-04-28 20:52 29.60249 34.54168 40985 ft 565 kts 104°
2026-04-28 20:52 29.59158 34.58467 40988 ft 558 kts 116°
2026-04-28 20:52 29.57402 34.62392 40988 ft 548 kts 129°
2026-04-28 20:52 29.55056 34.65781 40977 ft 536 kts 141°
2026-04-28 20:53 30.10776 31.39517 40976 ft 0 kts 75°